TimeEST,TemperatureF,Dew PointF,Humidity,Sea Level PressureIn,VisibilityMPH,Wind Direction,Wind SpeedMPH,Gust SpeedMPH,PrecipitationIn,Events,Conditions,WindDirDegrees,DateUTC
12:53 AM,30.9,23.0,72,30.01,10.0,SW,6.9,-,N/A,,Overcast,230,2012-11-26 05:53:00
1:53 AM,30.9,23.0,72,30.03,10.0,WSW,5.8,-,N/A,,Overcast,240,2012-11-26 06:53:00
2:53 AM,32.0,24.1,73,30.05,10.0,West,8.1,-,N/A,,Overcast,270,2012-11-26 07:53:00
3:53 AM,32.0,21.9,66,30.06,10.0,WNW,4.6,-,N/A,,Overcast,290,2012-11-26 08:53:00
4:53 AM,32.0,21.0,64,30.08,10.0,WNW,6.9,-,N/A,,Overcast,300,2012-11-26 09:53:00
5:53 AM,30.9,21.0,67,30.11,10.0,NW,3.5,-,N/A,,Overcast,310,2012-11-26 10:53:00
6:53 AM,30.0,19.9,66,30.13,10.0,NW,4.6,-,N/A,,Overcast,310,2012-11-26 11:53:00
7:53 AM,30.0,19.0,64,30.15,10.0,WNW,4.6,-,N/A,,Overcast,290,2012-11-26 12:53:00
8:53 AM,30.0,19.9,66,30.17,10.0,WSW,6.9,-,N/A,,Overcast,250,2012-11-26 13:53:00
9:53 AM,30.9,19.0,61,30.20,10.0,West,6.9,-,N/A,,Overcast,280,2012-11-26 14:53:00
10:53 AM,32.0,19.9,61,30.21,10.0,West,9.2,-,N/A,,Overcast,270,2012-11-26 15:53:00
11:53 AM,32.0,19.0,59,30.21,10.0,West,11.5,-,N/A,,Overcast,270,2012-11-26 16:53:00
12:53 PM,32.0,18.0,56,30.20,10.0,West,10.4,-,N/A,,Overcast,270,2012-11-26 17:53:00
1:53 PM,33.1,18.0,54,30.20,10.0,West,11.5,-,N/A,,Overcast,270,2012-11-26 18:53:00
2:53 PM,32.0,21.0,64,30.22,10.0,WSW,11.5,-,N/A,,Overcast,250,2012-11-26 19:53:00
3:53 PM,32.0,21.0,64,30.22,10.0,WSW,10.4,-,N/A,,Overcast,250,2012-11-26 20:53:00
4:53 PM,30.9,19.0,61,30.23,10.0,West,9.2,-,N/A,,Overcast,260,2012-11-26 21:53:00
5:53 PM,30.9,19.0,61,30.25,10.0,West,9.2,-,N/A,,Overcast,270,2012-11-26 22:53:00
6:53 PM,30.9,19.0,61,30.27,10.0,West,6.9,-,N/A,,Overcast,280,2012-11-26 23:53:00
7:53 PM,30.0,19.0,64,30.27,10.0,West,5.8,-,N/A,,Overcast,260,2012-11-27 00:53:00
8:53 PM,30.0,19.9,66,30.28,10.0,West,6.9,-,N/A,,Overcast,270,2012-11-27 01:53:00
9:53 PM,30.0,19.9,66,30.30,10.0,WNW,6.9,-,N/A,,Overcast,290,2012-11-27 02:53:00
10:29 PM,30.2,21.2,69,30.29,10.0,NNW,8.1,-,N/A,,Overcast,330,2012-11-27 03:29:00
10:39 PM,28.4,21.2,74,30.29,10.0,NNW,10.4,-,N/A,,Overcast,330,2012-11-27 03:39:00
10:53 PM,28.9,21.0,72,30.32,10.0,NNW,9.2,-,N/A,,Overcast,330,2012-11-27 03:53:00
11:53 PM,28.9,19.9,69,30.32,10.0,NW,9.2,-,N/A,,Overcast,320,2012-11-27 04:53:00